Simultaneous Nadir Overpasses (SNOs) Predictions

Prediction of SNOs between LANDSAT-8 and NOAA-19 Satellite Orbit:

Table of predicted SNOs for the next 14.0 days since TLE Epoch: 8/14/2015
Index Date (LANDSAT-8) Time (LANDSAT-8) Lat,Lon (LANDSAT-8) SZA (LANDSAT-8 ) Date (NOAA-19) Time (NOAA-19) Lat,Lon (NOAA-19) SZA (NOAA-19 ) Distance(km) Time Diff (sec)
1 08/16/2015 09:06:52 -73.50,-134.66 120.38 08/16/2015 09:06:20 -73.50,-134.73 120.37 2.25 32
2 08/16/2015 09:56:19 73.42, 32.81 59.56 08/16/2015 09:57:15 73.41, 32.76 59.55 1.80 56
3 08/18/2015 13:50:59 -74.10, 155.60 119.05 08/18/2015 13:49:52 -74.17, 152.81 119.00 85.15 67
4 08/18/2015 14:40:37 73.45, -38.19 60.29 08/18/2015 14:40:34 73.45, -38.14 60.30 1.88 3
5 08/18/2015 15:30:19 -72.70, 127.94 120.46 08/18/2015 15:31:24 -72.68, 130.84 120.46 96.16 65
6 08/20/2015 19:24:53 73.53,-109.09 61.09 08/20/2015 19:23:53 73.55,-109.16 61.11 3.01 60
7 08/20/2015 20:14:23 -73.42, 58.30 119.02 08/20/2015 20:14:56 -73.41, 58.40 119.02 3.46 33
8 08/23/2015 00:58:40 -73.49, -12.61 118.20 08/23/2015 00:58:16 -73.51, -12.62 118.19 1.61 24
9 08/23/2015 01:48:07 73.40, 154.84 61.72 08/23/2015 01:49:11 73.43, 154.84 61.75 2.70 64
10 08/25/2015 05:42:52 -73.83, -82.96 117.11 08/25/2015 05:41:41 -73.86, -84.25 117.09 40.06 71
11 08/25/2015 06:32:24 73.48, 83.92 62.55 08/25/2015 06:32:30 73.48, 83.93 62.55 0.58 6
12 08/27/2015 11:16:41 73.54, 12.99 63.38 08/27/2015 11:15:49 73.54, 13.01 63.37 0.92 52
13 08/27/2015 12:06:11 -73.44,-
